Date String (YYYY-MM-DD hh:mm:ss) UTC,Instrument flags,Ambient pressure (hPa),Sample flow (lpm),Bypass flow (lpm),Sample temperature (°C),Ambient temperature (°C),ASC tube jacket temperature (°C),LED temperature (°C),Box temperature (°C),Sample RH (%),Span deviation,Mass concentration (μg/m³),Mass concentration (μg/m³),Mass concentration (μg/m³)
DateTimeUTC,F1_M11,P_M11,Q1_M11,Q2_M11,T1_M11,T2_M11,T3_M11,T4_M11,T5_M11,U1_M11,ZSPAN_M11,X0_M11,X2_M11,X1_M11
2022-06-21 08:00:00,,0832.1,4.99,0.00,29.1,28.0,00.0,38.0,30.8,15.0,0000.0,0012.43,0004.01,0001.55
2022-06-21 08:01:00,,0832.1,5.00,0.00,29.1,28.0,00.0,38.0,30.8,15.0,0000.0,0012.16,0004.00,0001.53
2022-06-21 08:02:00,,0832.2,5.01,0.00,29.1,28.0,00.0,38.0,30.8,15.0,0000.0,0011.75,0004.01,0001.54
2022-06-21 08:03:00,,0832.2,4.99,0.00,29.1,28.0,00.0,38.0,30.8,15.0,0000.0,0011.79,0004.06,0001.56
2022-06-21 08:04:00,,0832.1,4.99,0.00,29.0,28.0,00.0,38.0,30.8,15.0,0000.0,0011.75,0004.07,0001.56
2022-06-21 08:05:00,,0832.1,5.00,0.00,29.0,28.0,00.0,38.0,30.8,15.0,0000.0,0011.92,0004.13,0001.57
2022-06-21 08:06:00,,0832.2,5.01,0.00,29.0,28.0,00.0,38.0,30.8,15.0,0000.0,0011.78,0004.12,0001.59
2022-06-21 08:07:00,,0832.2,4.98,0.00,29.0,28.0,00.0,38.0,30.7,15.0,0000.0,0011.30,0004.06,0001.59
2022-06-21 08:08:00,,0832.2,5.01,0.00,29.0,28.0,00.0,38.0,30.8,15.0,0000.0,0011.28,0004.05,0001.58
2022-06-21 08:09:00,,0832.2,5.00,0.00,29.0,28.0,00.0,38.0,30.8,14.9,0000.0,0010.86,0004.00,0001.55
2022-06-21 08:10:00,,0832.2,5.00,0.00,29.0,28.0,00.0,38.0,30.8,14.9,0000.0,0010.48,0003.92,0001.53
2022-06-21 08:11:00,,0832.2,5.01,0.00,29.1,28.0,00.0,38.0,30.8,14.9,0000.0,0010.31,0003.86,0001.51
2022-06-21 08:12:00,,0832.3,4.99,0.00,29.1,28.1,00.0,38.0,30.8,14.8,0000.0,0010.08,0003.88,0001.53
2022-06-21 08:13:00,,0832.3,5.00,0.00,29.1,28.1,00.0,38.0,30.8,14.8,0000.0,0009.33,0003.84,0001.52
2022-06-21 08:14:00,,0832.3,5.00,0.00,29.1,28.1,00.0,38.0,30.8,14.8,0000.0,0009.14,0003.79,0001.51
2022-06-21 08:15:00,,0832.3,5.01,0.00,29.1,28.1,00.0,38.0,30.9,14.8,0000.0,0009.26,0003.80,0001.50
2022-06-21 08:16:00,,0832.3,4.99,0.00,29.1,28.1,00.0,38.0,30.8,14.8,0000.0,0009.43,0003.76,0001.50
2022-06-21 08:17:00,,0832.2,5.00,0.00,29.1,28.1,00.0,38.0,30.9,14.8,0000.0,0009.63,0003.75,0001.51
2022-06-21 08:18:00,,0832.2,5.00,0.00,29.1,28.1,00.0,38.0,30.8,14.8,0000.0,0009.55,0003.74,0001.51
2022-06-21 08:19:00,,0832.3,4.99,0.00,29.1,28.1,00.0,38.0,30.8,14.8,0000.0,0009.50,0003.75,0001.51
2022-06-21 08:20:00,,0832.3,5.00,0.00,29.1,28.1,00.0,38.0,30.8,14.8,0000.0,0009.59,0003.80,0001.54
2022-06-21 08:21:00,,0832.3,5.00,0.00,29.1,28.1,00.0,38.0,30.8,14.9,0000.0,0010.24,0003.84,0001.55
2022-06-21 08:22:00,,0832.4,5.01,0.00,29.1,28.1,00.0,38.0,30.8,14.8,0000.0,0010.94,0003.88,0001.55
2022-06-21 08:23:00,,0832.4,5.00,0.00,29.1,28.1,00.0,38.0,30.8,14.8,0000.0,0011.14,0003.86,0001.56
2022-06-21 08:24:00,,0832.4,5.00,0.00,29.1,28.1,00.0,38.0,30.8,14.8,0000.0,0011.30,0003.92,0001.57
2022-06-21 08:25:00,,0832.3,4.99,0.00,29.1,28.1,00.0,38.0,30.9,14.8,0000.0,0011.54,0003.98,0001.56
2022-06-21 08:26:00,,0832.3,5.00,0.00,29.1,28.1,00.0,38.0,30.9,14.8,0000.0,0011.48,0003.97,0001.56
2022-06-21 08:27:00,,0832.4,5.00,0.00,29.1,28.1,00.0,38.0,30.9,14.8,0000.0,0011.28,0003.93,0001.55
2022-06-21 08:28:00,,0832.3,4.99,0.00,29.1,28.1,00.0,38.0,30.9,14.9,0000.0,0011.03,0003.92,0001.53
2022-06-21 08:29:00,,0832.4,5.01,0.00,29.1,28.1,00.0,38.0,30.9,14.9,0000.0,0011.53,0003.88,0001.51
2022-06-21 08:30:00,,0832.5,5.01,0.00,29.1,28.1,00.0,38.0,30.8,14.9,0000.0,0011.52,0003.86,0001.50
2022-06-21 08:31:00,,0832.5,4.99,0.00,29.1,28.1,00.0,38.0,30.9,14.8,0000.0,0011.32,0003.80,0001.48
2022-06-21 08:32:00,,0832.5,5.00,0.00,29.1,28.1,00.0,38.0,30.9,14.8,0000.0,0010.61,0003.76,0001.47
2022-06-21 08:33:00,,0832.5,5.00,0.00,29.1,28.1,00.0,38.0,30.9,14.8,0000.0,0010.11,0003.77,0001.47
2022-06-21 08:34:00,,0832.6,5.00,0.00,29.1,28.1,00.0,38.0,30.9,14.8,0000.0,0010.38,0003.79,0001.47
2022-06-21 08:35:00,,0832.6,4.99,0.00,29.1,28.1,00.0,38.0,30.9,14.8,0000.0,0010.91,0003.74,0001.46
2022-06-21 08:36:00,,0832.6,5.00,0.00,29.1,28.1,00.0,38.0,30.9,14.7,0000.0,0011.05,0003.70,0001.46
2022-06-21 08:37:00,,0832.6,5.01,0.00,29.1,28.2,00.0,38.0,30.9,14.7,0000.0,0011.14,0003.72,0001.47
2022-06-21 08:38:00,,0832.7,4.99,0.00,29.1,28.1,00.0,38.0,30.9,14.7,0000.0,0011.79,0003.81,0001.47
2022-06-21 08:39:00,,0832.6,5.00,0.00,29.1,28.1,00.0,38.0,30.9,14.7,0000.0,0012.42,0003.81,0001.47
2022-06-21 08:40:00,,0832.7,5.00,0.00,29.1,28.1,00.0,38.0,30.9,14.7,0000.0,0012.75,0003.88,0001.49
2022-06-21 08:41:00,,0832.7,5.00,0.00,29.1,28.1,00.0,38.0,30.8,14.7,0000.0,0012.99,0003.90,0001.51
2022-06-21 08:42:00,,0832.7,4.99,0.00,29.1,28.1,00.0,38.0,30.8,14.8,0000.0,0013.65,0003.93,0001.52
2022-06-21 08:43:00,,0832.7,5.02,0.00,29.1,28.1,00.0,38.0,30.8,14.8,0000.0,0013.93,0003.97,0001.55
2022-06-21 08:44:00,,0832.6,4.99,0.00,29.1,28.1,00.0,38.0,30.8,14.8,0000.0,0014.26,0003.97,0001.56
2022-06-21 08:45:00,,0832.6,5.00,0.00,29.1,28.0,00.0,38.0,30.8,14.8,0000.0,0013.88,0004.00,0001.57
2022-06-21 08:46:00,,0832.7,5.02,0.00,29.1,28.0,00.0,38.0,30.8,14.8,0000.0,0013.67,0004.02,0001.57
2022-06-21 08:47:00,,0832.7,4.99,0.00,29.1,28.0,00.0,38.0,30.8,14.8,0000.0,0013.63,0004.07,0001.59
2022-06-21 08:48:00,,0832.7,5.00,0.00,29.0,28.0,00.0,38.0,30.8,14.9,0000.0,0014.15,0004.12,0001.59
2022-06-21 08:49:00,,0832.7,5.00,0.00,29.0,28.0,00.0,38.0,30.7,14.9,0000.0,0013.77,0004.14,0001.61
2022-06-21 08:50:00,,0832.7,4.99,0.00,29.0,28.0,00.0,38.0,30.7,14.9,0000.0,0013.20,0004.15,0001.63
2022-06-21 08:51:00,,0832.7,4.99,0.00,29.0,27.9,00.0,38.0,30.7,14.9,0000.0,0012.44,0004.17,0001.62
2022-06-21 08:52:00,,0832.6,5.01,0.00,29.0,27.9,00.0,38.0,30.7,14.9,0000.0,0012.38,0004.22,0001.63
2022-06-21 08:53:00,,0832.7,5.00,0.00,29.0,27.8,00.0,38.0,30.6,15.0,0000.0,0011.75,0004.25,0001.63
2022-06-21 08:54:00,,0832.7,4.99,0.00,28.9,27.8,00.0,37.9,30.6,15.0,0000.0,0011.56,0004.25,0001.64
2022-06-21 08:55:00,,0832.6,5.01,0.00,28.9,27.8,00.0,37.9,30.6,15.0,0000.0,0011.40,0004.25,0001.63
2022-06-21 08:56:00,,0832.6,4.99,0.00,28.9,27.8,00.0,37.9,30.6,15.1,0000.0,0011.80,0004.27,0001.62
2022-06-21 08:57:00,,0832.6,5.00,0.00,28.9,27.8,00.0,37.9,30.6,15.1,0000.0,0011.59,0004.30,0001.63
2022-06-21 08:58:00,,0832.7,5.00,0.00,28.9,27.7,00.0,37.9,30.6,15.1,0000.0,0011.40,0004.28,0001.63
2022-06-21 08:59:00,,0832.6,4.99,0.00,28.9,27.7,00.0,37.9,30.5,15.1,0000.0,0011.23,0004.20,0001.62
